[[{"header":{"parameterUnit":"m.s-1","parameterCategory":1,"la1":30.2991,"la2":30.254,"lo1":-89.0895,"lo2":-89.0444,"dy":0.0017,"dx":0.0017,"nx":28,"ny":28,"refTime":"2025-07-31T21:00:00:Z","depth":0,"parameterNumber":2,"parameterNumberName":"U-component_of_WINDS"},"data":[0,0,0,0,0,0,0,0,0,0,0,0,0,0,0,0,0,0,0,0,0,0,0,0,0,0,0,0,0,0,0,0,0,0,0,0,0,0,0,0,0,0,0,0,0,0,0,0,0,0,0,0,0,0,0,0,0,0,3.4406,3.4408,0,3.4538,3.4539,3.4541,3.451,3.4507,3.4504,3.4502,3.4638,3.4644,3.465,0,0,0,0,0,0,0,0,0,0,0,0,0,3.4128,3.4133,3.4406,3.4408,3.441,3.4538,3.4539,3.4541,3.451,3.4507,3.4504,3.4501,3.4636,3.4643,3.465,0,0,0,0,0,0,0,0,0,0,0,0,0,3.4253,3.4135,3.4406,3.4409,3.4411,3.4537,3.4539,3.4542,3.4511,3.4507,3.4503,3.4499,3.4634,3.4642,3.4651,3.4783,0,0,3.4679,3.4683,0,0,0,0,0,0,0,0,3.4246,3.4263,3.4407,3.4409,3.4411,3.4503,3.4491,3.4623,3.4512,3.4473,3.4502,3.4498,3.4596,3.4608,3.4641,3.4789,3.4795,3.4679,3.4685,3.4689,3.4691,0,0,0,0,0,0,0,3.4238,3.4258,3.4458,3.4409,3.4412,3.4404,3.4418,3.4516,3.4554,3.4476,3.4474,3.449,3.4597,3.4633,3.4644,3.4797,3.4679,3.4687,3.4693,3.4696,3.5057,3.5061,0,0,0,0,0,0,3.4227,3.4251,3.4454,3.4462,3.4318,3.4412,3.4428,3.4478,3.4553,3.4561,3.4493,3.4488,3.4619,3.4634,3.4649,3.4806,3.4689,3.4697,3.4702,3.5053,3.5058,3.5062,0,0,0,0,0,0,3.4221,3.4245,3.4449,3.4356,3.4381,3.4421,3.4478,3.4482,3.4518,3.4566,3.4573,3.4523,3.4617,3.4636,3.4749,3.481,3.4701,3.4709,3.5048,3.5054,3.506,3.5122,0,0,0,0,0,0,3.4213,3.4244,3.4294,3.4357,3.4386,3.4547,3.4482,3.4488,3.4533,3.4528,3.4596,3.4603,3.4615,3.4736,3.4758,3.4821,3.4716,3.5043,3.5051,3.5058,3.5115,3.513,3.5143,0,0,0,0,0,3.4204,3.4307,3.4297,3.4321,3.445,3.4551,3.4567,3.4579,3.4539,3.4589,3.462,3.4601,3.48,3.4748,3.4772,3.4839,3.5039,3.5048,3.5058,3.5108,3.5127,3.5142,0,0,0,0,0,0,3.425,3.4315,3.4305,3.4432,3.4486,3.4545,3.4609,3.4598,3.4665,3.4657,3.4669,3.4685,3.4799,3.4831,3.4771,3.4969,3.4914,3.4929,3.4944,3.4962,3.4975,3.4965,3.4724,0,0,0,0,0,3.4275,3.4351,3.4404,3.4511,3.4539,3.457,3.4614,3.4618,3.4674,3.4697,3.4736,3.4792,3.4867,3.4916,3.4988,3.5119,3.5133,3.5177,3.5191,3.5202,3.5214,3.5284,3.5304,3.5094,3.5093,3.5093,0,0,3.4328,3.4373,3.442,3.4522,3.4564,3.4642,3.4589,3.4674,3.4732,3.4711,3.4819,3.4849,3.4913,3.5034,3.509,3.5064,3.5276,3.5214,3.5223,3.5229,3.5296,3.5316,3.5334,3.51,3.5099,3.5098,0,0,3.4463,3.4506,3.4598,3.4642,3.4706,3.4726,3.4748,3.4809,3.4828,3.4937,3.4922,3.4991,3.512,3.5165,3.5205,3.5356,3.5341,3.538,3.5452,3.552,3.5536,3.5551,3.5603,3.5622,3.5392,3.5392,3.5392,0,3.4521,3.4637,3.4648,3.4734,3.4778,3.4761,3.4855,3.4897,3.4982,3.5012,3.4982,3.5143,3.5184,3.5316,3.5352,3.5386,3.5411,3.5371,3.5533,3.5548,3.5562,3.5612,3.5631,3.5396,3.5396,3.5395,3.5395,0,3.4704,3.4785,3.4852,3.4933,3.4985,3.5075,3.5098,3.515,3.5149,3.5172,3.5282,3.5332,3.5412,3.5444,3.5445,3.5575,3.5557,3.553,3.5474,3.5586,3.5633,3.5652,3.5402,3.5401,3.54,3.5399,0,0,3.4872,3.4957,3.4981,3.5017,3.5086,3.5149,3.5238,3.5316,3.5359,3.5418,3.5492,3.5601,3.5576,3.5621,3.5627,3.5687,3.5801,3.5653,3.5654,3.5677,3.5946,3.5964,3.5987,3.5792,3.5796,3.5799,3.594,0,3.5012,3.5167,3.5178,3.5318,3.5392,3.5377,3.5454,3.5505,3.5528,3.5595,3.5621,3.5697,3.566,3.5686,3.5745,3.5775,3.5855,3.5765,3.586,3.5863,3.5843,3.6011,3.6032,3.6163,3.5959,3.5962,3.5964,0,3.5196,3.5259,3.5406,3.5464,3.5495,3.5564,3.5635,3.57,3.5756,3.5769,3.5819,3.5816,3.5907,3.5849,3.5973,3.5911,3.5951,3.5971,3.5977,3.5985,3.5919,3.6022,3.6205,3.6224,3.5994,3.5991,3.5989,0,3.5302,3.5424,3.5527,3.5559,3.5629,3.5677,3.5708,3.5762,3.5807,3.587,3.5899,3.5973,3.6012,3.6069,3.6085,3.6042,3.6208,3.6152,3.6221,3.622,3.6255,3.6252,3.6445,3.6284,3.6283,3.6283,3.6283,0,3.5456,3.5546,3.5575,3.5639,3.5739,3.575,3.5849,3.5878,3.5925,3.5993,3.5986,3.605,3.6069,3.6136,3.615,3.625,3.6268,3.6281,3.6283,3.628,3.6279,3.6305,3.6296,3.6288,3.6287,3.6286,3.6285,0,3.5591,3.5614,3.5725,3.5782,3.5798,3.5869,3.5917,3.5978,3.6,3.6086,3.6107,3.6142,3.6221,3.6244,3.6339,3.6348,3.6465,3.646,3.6445,3.6444,3.6511,3.6503,3.6726,3.6755,3.6576,3.6578,3.6579,0,3.5687,3.5756,3.5819,3.5864,3.5897,3.5969,3.6015,3.603,3.6078,3.6147,3.6199,3.6277,3.634,3.6467,3.6501,3.6573,3.6569,3.6642,3.658,3.6574,3.6568,3.6562,3.6569,3.6653,3.6655,3.6656,3.6657,0,3.5855,3.5862,3.5929,3.5999,3.6054,3.611,3.6164,3.6201,3.6223,3.6278,3.6358,3.6407,3.6503,3.658,3.6653,3.6685,3.6675,3.6677,3.6696,3.6693,3.6681,3.6687,3.6475,3.6671,3.667,3.6669,3.6668,3.6668,3.5972,3.6031,3.6084,3.6158,3.62,3.625,3.6309,3.6338,3.6405,3.6484,3.6489,3.6575,3.6629,3.6726,3.6762,3.683,3.6808,3.6837,3.6844,3.685,3.6855,3.6672,3.6844,3.6843,3.6843,3.6843,3.6842,0,3.6137,3.617,3.6238,3.6313,3.6371,3.6356,3.6414,3.6464,3.6539,3.6591,3.6652,3.6743,3.6817,3.6857,3.693,3.6977,3.6974,3.6996,3.6992,3.6999,3.6871,3.6846,3.6997,3.6997,3.6997,3.6997,3.6997,3.6997,3.623,3.6329,3.6343,3.6462,3.6495,3.6578,3.6613,3.6659,3.6699,3.6801,3.6863,3.6887,3.6934,3.701,3.7077,3.7087,3.7114,3.7138,3.7145,3.7024,3.7008,3.6993,3.6969,3.7144,3.7144,3.7267,3.7268,3.7269]},{"header":{"parameterUnit":"m.s-1","parameterCategory":1,"la1":30.2991,"la2":30.254,"lo1":-89.0895,"lo2":-89.0444,"dy":0.0017,"dx":0.0017,"nx":28,"ny":28,"refTime":"2025-07-31T21:00:00:Z","depth":0,"parameterNumber":3,"parameterNumberName":"V-component_of_WINDS"},"data":[0,0,0,0,0,0,0,0,0,0,0,0,0,0,0,0,0,0,0,0,0,0,0,0,0,0,0,0,0,0,0,0,0,0,0,0,0,0,0,0,0,0,0,0,0,0,0,0,0,0,0,0,0,0,0,0,0,0,0.8232,0.8233,0,0.824,0.824,0.824,0.8214,0.8213,0.8212,0.8212,0.8221,0.8221,0.8222,0,0,0,0,0,0,0,0,0,0,0,0,0,0.8195,0.8196,0.8232,0.8233,0.8233,0.824,0.824,0.824,0.8214,0.8213,0.8212,0.8211,0.822,0.8221,0.8223,0,0,0,0,0,0,0,0,0,0,0,0,0,0.8208,0.8196,0.8232,0.822,0.8219,0.824,0.824,0.824,0.8214,0.8213,0.8212,0.8211,0.822,0.8221,0.8223,0.8256,0,0,0.8227,0.8228,0,0,0,0,0,0,0,0,0.8207,0.8209,0.8222,0.8221,0.822,0.8225,0.823,0.8246,0.8215,0.8216,0.8211,0.821,0.8223,0.8224,0.8228,0.8256,0.8257,0.8227,0.8228,0.8229,0.8229,0,0,0,0,0,0,0,0.8206,0.8209,0.8236,0.8222,0.8221,0.8215,0.8215,0.8233,0.8226,0.8216,0.8214,0.8215,0.8222,0.8227,0.8228,0.8257,0.8227,0.8229,0.823,0.823,0.8312,0.8313,0,0,0,0,0,0,0.8207,0.8208,0.8235,0.8236,0.821,0.8216,0.8217,0.8225,0.8226,0.8225,0.8216,0.8214,0.8225,0.8227,0.8229,0.8267,0.8229,0.823,0.8231,0.8311,0.8312,0.8314,0,0,0,0,0,0,0.8206,0.821,0.8235,0.8221,0.8224,0.8218,0.8227,0.8225,0.823,0.8226,0.8225,0.8222,0.8224,0.8226,0.8249,0.8267,0.8231,0.8232,0.8309,0.8311,0.8313,0.8346,0,0,0,0,0,0,0.8205,0.8209,0.8222,0.8222,0.8225,0.8256,0.8228,0.8226,0.8233,0.823,0.8232,0.8231,0.8223,0.8247,0.8251,0.8269,0.8233,0.8308,0.831,0.8312,0.8343,0.8348,0.8353,0,0,0,0,0,0.8204,0.8231,0.8223,0.8226,0.8241,0.8257,0.8258,0.8249,0.8234,0.8247,0.8244,0.8231,0.8265,0.825,0.8253,0.8272,0.8306,0.8309,0.8312,0.8341,0.8347,0.8353,0,0,0,0,0,0,0.8234,0.8231,0.8222,0.825,0.8254,0.8252,0.8268,0.8257,0.8265,0.8262,0.825,0.8251,0.8276,0.8276,0.826,0.8304,0.8283,0.8287,0.8303,0.831,0.8315,0.8314,0.8235,0,0,0,0,0,0.8244,0.8257,0.8254,0.8279,0.8281,0.8274,0.8281,0.8273,0.8277,0.8279,0.8278,0.8282,0.8293,0.8301,0.8312,0.8342,0.8342,0.8357,0.8362,0.8366,0.837,0.8386,0.8393,0.8323,0.8323,0.8323,0,0,0.8265,0.8265,0.8274,0.8285,0.8287,0.8301,0.8276,0.8292,0.8302,0.8281,0.8302,0.8302,0.8306,0.8332,0.8344,0.8334,0.8389,0.837,0.8374,0.8375,0.839,0.8396,0.8402,0.8325,0.8325,0.8325,0,0,0.831,0.8311,0.8332,0.8334,0.8337,0.8332,0.8337,0.8337,0.8336,0.8357,0.8342,0.8353,0.8374,0.8377,0.8381,0.8426,0.8414,0.843,0.8457,0.8473,0.8478,0.8483,0.8499,0.8505,0.8433,0.8434,0.8434,0,0.8336,0.8356,0.8344,0.8361,0.8366,0.8347,0.8368,0.8371,0.8378,0.8382,0.8369,0.8394,0.8395,0.8422,0.8433,0.8437,0.8443,0.843,0.8478,0.8483,0.8487,0.8503,0.8509,0.8435,0.8435,0.8435,0.8435,0,0.8387,0.8401,0.8418,0.8424,0.8431,0.845,0.8441,0.845,0.8441,0.8437,0.8459,0.8459,0.8469,0.8475,0.8467,0.8501,0.8494,0.848,0.8459,0.8496,0.851,0.8516,0.8438,0.8438,0.8437,0.8437,0,0,0.8453,0.8451,0.8458,0.846,0.8462,0.8472,0.849,0.8499,0.8507,0.8512,0.8526,0.8543,0.853,0.8535,0.8527,0.8541,0.8577,0.8525,0.8525,0.8535,0.8614,0.8625,0.8632,0.8568,0.8569,0.857,0.8614,0,0.8497,0.8527,0.8517,0.8547,0.856,0.8542,0.8557,0.856,0.8556,0.8567,0.8563,0.8575,0.8557,0.856,0.8573,0.857,0.8592,0.8566,0.8582,0.8583,0.8582,0.8639,0.8651,0.8692,0.8619,0.862,0.8621,0,0.8553,0.8559,0.8591,0.859,0.8595,0.8609,0.8617,0.8627,0.8629,0.8626,0.8631,0.862,0.8637,0.8615,0.8638,0.8621,0.8626,0.8626,0.8627,0.8629,0.8605,0.8643,0.8705,0.8711,0.8629,0.8629,0.8628,0,0.8598,0.8615,0.8636,0.8638,0.8637,0.8648,0.8648,0.8649,0.8655,0.8661,0.8665,0.8673,0.8678,0.8685,0.8676,0.8661,0.8701,0.8679,0.8699,0.8699,0.8709,0.8709,0.8774,0.8712,0.8712,0.8712,0.8712,0,0.8649,0.8669,0.8656,0.8669,0.8691,0.8678,0.8701,0.8699,0.87,0.8712,0.8696,0.8708,0.8696,0.8707,0.87,0.8721,0.8723,0.8721,0.8719,0.8722,0.8723,0.8727,0.8724,0.8713,0.8713,0.8713,0.8712,0,0.8703,0.8695,0.8717,0.8713,0.8713,0.873,0.8727,0.8739,0.8734,0.875,0.8753,0.8745,0.8757,0.8749,0.8761,0.8756,0.8783,0.8777,0.8783,0.8781,0.8802,0.8801,0.8872,0.8881,0.8814,0.8814,0.8815,0,0.8736,0.8751,0.875,0.8757,0.8758,0.8769,0.8775,0.8763,0.877,0.8773,0.8785,0.8795,0.8803,0.8822,0.8818,0.8827,0.8821,0.8846,0.8823,0.8826,0.8822,0.8821,0.8823,0.8851,0.8851,0.8852,0.8853,0,0.8796,0.8791,0.88,0.8808,0.8815,0.882,0.8824,0.8831,0.8819,0.8827,0.8839,0.8845,0.8856,0.8867,0.8874,0.8874,0.8862,0.886,0.8865,0.8869,0.8872,0.8871,0.8796,0.8858,0.8858,0.8857,0.8857,0.8857,0.8841,0.8854,0.8854,0.8864,0.8866,0.887,0.8881,0.8877,0.8886,0.8895,0.8887,0.8901,0.8902,0.8911,0.8912,0.8923,0.8913,0.8921,0.8923,0.8925,0.8928,0.887,0.8924,0.8924,0.8924,0.8924,0.8924,0,0.8901,0.89,0.8909,0.8915,0.8923,0.891,0.8913,0.8921,0.8933,0.8936,0.8943,0.8956,0.8966,0.8962,0.8971,0.898,0.8975,0.8983,0.8983,0.8983,0.8936,0.8931,0.8987,0.8987,0.8987,0.8987,0.8987,0.8987,0.8933,0.8953,0.8948,0.8968,0.8967,0.8981,0.8984,0.8987,0.8989,0.9004,0.9012,0.9009,0.9009,0.9017,0.9026,0.9024,0.9028,0.9039,0.9035,0.8992,0.8986,0.898,0.8975,0.904,0.904,0.9081,0.9081,0.9081]}]]